This is the latest recevied weather packets stored in our database for station/object KC3UTO. If no packets are shown the sender has not sent any weather packets the latest 10 day(s).
| Time | Temp. | Humidity | Pressure | Rain* | Wind** | Luminosity | Snow |
|---|---|---|---|---|---|---|---|
| 1776951691 | 17.78° C | 59% | 1014.8 hPa | 0 mm | - | 549 W/m² | - |
| 1776951387 | 17.78° C | 61% | 1014.8 hPa | 0 mm | - | 524 W/m² | - |
| 1776951084 | 17.78° C | 62% | 1014.9 hPa | 0 mm | - | 509 W/m² | - |
| 1776950780 | 17.22° C | 62% | 1014.9 hPa | 0 mm | - | 492 W/m² | - |
| 1776950476 | 16.67° C | 64% | 1015 hPa | 0 mm | - | 475 W/m² | - |
| 1776950175 | 16.11° C | 67% | 1015.2 hPa | 0 mm | - | 456 W/m² | - |
| 1776949872 | 16.11° C | 66% | 1015 hPa | 0 mm | - | 444 W/m² | - |
| 1776949568 | 16.11° C | 66% | 1015.2 hPa | 0 mm | - | 393 W/m² | - |
| 1776949264 | 16.11° C | 67% | 1015.1 hPa | 0 mm | - | 341 W/m² | - |
| 1776948959 | 15.56° C | 69% | 1014.8 hPa | 0 mm | - | 331 W/m² | - |
| 1776948656 | 15.56° C | 69% | 1015 hPa | 0 mm | - | 360 W/m² | - |
| 1776948352 | 15° C | 69% | 1015.2 hPa | 0 mm | - | 412 W/m² | - |
| 1776948052 | 13.89° C | 74% | 1014.8 hPa | 0 mm | - | 466 W/m² | - |
| 1776947748 | 13.33° C | 73% | 1014.9 hPa | 0 mm | - | 439 W/m² | - |
| 1776947443 | 13.33° C | 77% | 1014.9 hPa | 0 mm | - | 381 W/m² | - |
| 1776947141 | 12.78° C | 76% | 1014.7 hPa | 0 mm | - | 324 W/m² | - |
| 1776946837 | 12.22° C | 79% | 1014.7 hPa | 0 mm | - | 275 W/m² | - |
| 1776946533 | 11.67° C | 79% | 1014.7 hPa | 0 mm | - | 238 W/m² | - |
| 1776946231 | 11.67° C | 81% | 1014.8 hPa | 0 mm | - | 213 W/m² | - |
| 1776945928 | 11.11° C | 84% | 1014.6 hPa | 0 mm | - | 188 W/m² | - |
| 1776945624 | 10° C | 88% | 1014.7 hPa | 0 mm | - | 142 W/m² | - |
| 1776945320 | 9.44° C | 91% | 1014.5 hPa | 0 mm | - | 141 W/m² | - |
| 1776945015 | 8.89° C | 92% | 1014.7 hPa | 0 mm | - | 120 W/m² | - |
| 1776944711 | 8.33° C | 93% | 1014.6 hPa | 0 mm | - | 121 W/m² | - |
| 1776944408 | 8.33° C | 95% | 1014.5 hPa | 0 mm | - | 85 W/m² | - |
* Rain latest hour (hover to see other rain measurements)
** Current wind speed in m/s (hover to see current wind gust speed)